Hourly Data Report for November 12, 2017

All times are specified in Local Standard Time (LST). Add 1 hour to adjust for Daylight Saving Time where and when it is observed.

BATHURST A
NEW BRUNSWICK

47°37'47.000" N
65°44'20.000" W
58.80 m
8100505
71574
ZBF

Download Data

Hourly Data (November 2017)
Hourly Data Report for November 12, 2017
Temp Definition
°C
Dew Point Temp Definition
°C
Rel Hum Definition
%
Wind Dir Definition
10's deg

Wind Spd Definition
km/h
Visibility Definition
km
Stn Press Definition
kPa
Hmdx Definition


Wind Chill Definition


Weather Definition


TIME
00:00 Legend Double Dagger -4.3 -11.5 57 27 10 24.1 102.18   -8 LegendNANA
01:00 Legend Double Dagger -4.7 -11.8 58 27 11 24.1 102.22   -9 LegendNANA
02:00 Legend Double Dagger -4.8 -11.9 58 28 10 24.1 102.27   -9 Clear
03:00 Legend Double Dagger -5.2 -11.9 60 29 14 24.1 102.29   -11 LegendNANA
04:00 Legend Double Dagger -5.5 -11.9 61 29 12 24.1 102.32   -10 LegendNANA
05:00 Legend Double Dagger -6.0 -12.1 62 29 7 24.1 102.33   -9 Clear
06:00 Legend Double Dagger -6.3 -12.5 62 27 8 24.1 102.39   -10 LegendNANA
07:00 Legend Double Dagger -5.8 -12.9 58 29 10 24.1 102.42   -10 LegendNANA
08:00 Legend Double Dagger -5.5 -13.2 55 28 11 24.1 102.48   -10 Cloudy
09:00 Legend Double Dagger -4.1 -12.9 51 21 3 24.1 102.48   -5 LegendNANA
10:00 Legend Double Dagger -2.7 -13.2 45 15 3 24.1 102.48   -4 LegendNANA
11:00 Legend Double Dagger -2.9 -11.3 53 14 10 24.1 102.45   -7 Cloudy
12:00 Legend Double Dagger -1.2 -12.0 44 16 4 24.1 102.41   -3 LegendNANA
13:00 Legend Double Dagger -0.6 -12.8 40 18 8 24.1 102.34   -3 LegendNANA
14:00 Legend Double Dagger 0.1 -12.5 38 17 3 24.1 102.30     Cloudy
15:00 Legend Double Dagger 0.7 -13.6 34 15 5 24.1 102.29     LegendNANA
16:00 Legend Double Dagger 0.3 -15.8 29 20 5 24.1 102.28     LegendNANA
17:00 Legend Double Dagger -0.4 -14.4 34 18 9 24.1 102.30   -4 Mostly Cloudy
18:00 Legend Double Dagger -0.8 -13.1 39 19 6 24.1 102.32   -3 LegendNANA
19:00 Legend Double Dagger -2.1 -13.1 43 18 5 24.1 102.34   -4 LegendNANA
20:00 Legend Double Dagger -4.9 -11.0 63 24 4 24.1 102.37   -7 Clear
21:00 Legend Double Dagger -7.0 -10.9 73 23 4 24.1 102.38   -9 LegendNANA
22:00 Legend Double Dagger -7.4 -10.2 81 20 5 24.1 102.38   -10 LegendNANA
23:00 Legend Double Dagger -8.8 -11.0 84 22 6 24.1 102.38   -12 Clear

Notes on Data Quality.

Legend

  • E = Estimated
  • M = Missing
  • NA = Not Available
  • ‡ = Partner data that is not subject to review by the National Climate Archives
Date modified: